Time,TemperatureF,DewpointF,PressureIn,WindDirection,WindDirectionDegrees,WindSpeedMPH,WindSpeedGustMPH,Humidity,HourlyPrecipIn,Conditions,Clouds,dailyrainin,SolarRadiationWatts/m^2,SoftwareType,DateUTC
2013-01-15 00:12:00,-4.0,-15.0,-100.00,SSW,199,3.0,5.0,59,0.00,,,-99.99,0.000000,,2013-01-15 07:12:00,
2013-01-15 00:22:00,-4.0,-15.0,-100.00,SSW,199,3.0,5.0,59,0.00,,,-99.99,0.000000,,2013-01-15 07:22:00,
2013-01-15 00:32:00,-4.0,-15.0,-100.00,SSW,199,3.0,5.0,59,0.00,,,-99.99,0.000000,,2013-01-15 07:32:00,
2013-01-15 00:42:00,-4.0,-15.0,-100.00,SSW,199,3.0,5.0,59,0.00,,,-99.99,0.000000,,2013-01-15 07:42:00,
2013-01-15 01:12:00,-4.0,-14.0,-100.00,SSE,150,5.0,7.0,60,0.00,,,0.00,0.000000,,2013-01-15 08:12:00,
2013-01-15 01:22:00,-4.0,-14.0,-100.00,SSE,150,5.0,7.0,60,0.00,,,0.00,0.000000,,2013-01-15 08:22:00,
2013-01-15 01:32:00,-4.0,-14.0,-100.00,SSE,150,5.0,7.0,60,0.00,,,0.00,0.000000,,2013-01-15 08:32:00,
2013-01-15 01:42:00,-4.0,-14.0,-100.00,SSE,150,5.0,7.0,60,0.00,,,0.00,0.000000,,2013-01-15 08:42:00,
2013-01-15 02:12:00,-4.0,-14.0,-100.00,SSE,158,5.0,7.0,61,0.00,,,0.00,0.000000,,2013-01-15 09:12:00,
2013-01-15 02:22:00,-4.0,-14.0,-100.00,SSE,158,5.0,7.0,61,0.00,,,0.00,0.000000,,2013-01-15 09:22:00,
2013-01-15 02:33:00,-4.0,-14.0,-100.00,SSE,158,5.0,7.0,61,0.00,,,0.00,0.000000,,2013-01-15 09:33:00,
2013-01-15 02:42:00,-4.0,-14.0,-100.00,SSE,158,5.0,7.0,61,0.00,,,0.00,0.000000,,2013-01-15 09:42:00,
2013-01-15 03:11:00,-4.0,-15.0,-100.00,South,173,5.0,6.0,59,0.00,,,0.00,0.000000,,2013-01-15 10:11:00,
2013-01-15 03:22:00,-4.0,-15.0,-100.00,South,173,5.0,6.0,59,0.00,,,0.00,0.000000,,2013-01-15 10:22:00,
2013-01-15 03:32:00,-4.0,-15.0,-100.00,South,173,5.0,6.0,59,0.00,,,0.00,0.000000,,2013-01-15 10:32:00,
2013-01-15 03:42:00,-4.0,-15.0,-100.00,South,173,5.0,6.0,59,0.00,,,0.00,0.000000,,2013-01-15 10:42:00,
2013-01-15 04:12:00,-3.0,-15.0,-100.00,South,172,4.0,7.0,55,0.00,,,0.00,0.000000,,2013-01-15 11:12:00,
2013-01-15 04:22:00,-3.0,-15.0,-100.00,South,172,4.0,7.0,55,0.00,,,0.00,0.000000,,2013-01-15 11:22:00,
2013-01-15 04:32:00,-3.0,-15.0,-100.00,South,172,4.0,7.0,55,0.00,,,0.00,0.000000,,2013-01-15 11:32:00,
2013-01-15 04:42:00,-3.0,-15.0,-100.00,South,172,4.0,7.0,55,0.00,,,0.00,0.000000,,2013-01-15 11:42:00,
2013-01-15 05:12:00,-5.0,-17.0,-100.00,SE,137,4.0,8.0,56,0.00,,,0.00,0.000000,,2013-01-15 12:12:00,
2013-01-15 05:22:00,-5.0,-17.0,-100.00,SE,137,4.0,8.0,56,0.00,,,0.00,0.000000,,2013-01-15 12:22:00,
2013-01-15 05:32:00,-5.0,-17.0,-100.00,SE,137,4.0,8.0,56,0.00,,,0.00,0.000000,,2013-01-15 12:32:00,
2013-01-15 05:42:00,-5.0,-17.0,-100.00,SE,137,4.0,8.0,56,0.00,,,0.00,0.000000,,2013-01-15 12:42:00,
2013-01-15 06:12:00,-5.0,-17.0,-100.00,SE,135,4.0,7.0,54,0.00,,,0.00,0.000000,,2013-01-15 13:12:00,
2013-01-15 06:23:00,-5.0,-17.0,-100.00,SE,135,4.0,7.0,54,0.00,,,0.00,0.000000,,2013-01-15 13:23:00,
2013-01-15 06:33:00,-5.0,-17.0,-100.00,SE,135,4.0,7.0,54,0.00,,,0.00,0.000000,,2013-01-15 13:33:00,
2013-01-15 06:42:00,-5.0,-17.0,-100.00,SE,135,4.0,7.0,54,0.00,,,0.00,0.000000,,2013-01-15 13:42:00,
2013-01-15 07:12:00,-1.0,-15.0,-100.00,SE,146,7.0,9.0,50,0.00,,,0.00,0.000000,,2013-01-15 14:12:00,
2013-01-15 07:23:00,-1.0,-15.0,-100.00,SE,146,7.0,9.0,50,0.00,,,0.00,0.000000,,2013-01-15 14:23:00,
2013-01-15 07:33:00,-1.0,-15.0,-100.00,SE,146,7.0,9.0,50,0.00,,,0.00,0.000000,,2013-01-15 14:33:00,
2013-01-15 07:42:00,-1.0,-15.0,-100.00,SE,146,7.0,9.0,50,0.00,,,0.00,0.000000,,2013-01-15 14:42:00,
2013-01-15 08:12:00,-1.0,-16.0,-100.00,SE,125,6.0,9.0,48,0.00,,,0.00,2.000000,,2013-01-15 15:12:00,
2013-01-15 08:23:00,-1.0,-16.0,-100.00,SE,125,6.0,9.0,48,0.00,,,0.00,2.000000,,2013-01-15 15:23:00,
2013-01-15 08:33:00,-1.0,-16.0,-100.00,SE,125,6.0,9.0,48,0.00,,,0.00,2.000000,,2013-01-15 15:33:00,
2013-01-15 08:43:00,-1.0,-16.0,-100.00,SE,125,6.0,9.0,48,0.00,,,0.00,2.000000,,2013-01-15 15:43:00,
2013-01-15 09:12:00,6.0,-11.0,-100.00,ESE,118,6.0,8.0,44,0.00,,,0.00,79.000000,,2013-01-15 16:12:00,
2013-01-15 09:22:00,6.0,-11.0,-100.00,ESE,118,6.0,8.0,44,0.00,,,0.00,79.000000,,2013-01-15 16:22:00,
2013-01-15 09:33:00,6.0,-11.0,-100.00,ESE,118,6.0,8.0,44,0.00,,,0.00,79.000000,,2013-01-15 16:33:00,
2013-01-15 09:42:00,6.0,-11.0,-100.00,ESE,118,6.0,8.0,44,0.00,,,0.00,79.000000,,2013-01-15 16:42:00,
2013-01-15 10:12:00,13.0,-5.0,-100.00,East,95,10.0,18.0,43,0.00,,,0.00,258.000000,,2013-01-15 17:12:00,
2013-01-15 10:22:00,13.0,-5.0,-100.00,East,95,10.0,18.0,43,0.00,,,0.00,258.000000,,2013-01-15 17:22:00,
2013-01-15 10:33:00,13.0,-5.0,-100.00,East,95,10.0,18.0,43,0.00,,,0.00,258.000000,,2013-01-15 17:33:00,
2013-01-15 10:42:00,13.0,-5.0,-100.00,East,95,10.0,18.0,43,0.00,,,0.00,258.000000,,2013-01-15 17:42:00,
2013-01-15 11:12:00,15.0,-3.0,-100.00,East,93,10.0,17.0,44,0.00,,,0.00,411.000000,,2013-01-15 18:12:00,
2013-01-15 11:23:00,15.0,-3.0,-100.00,East,93,10.0,17.0,44,0.00,,,0.00,411.000000,,2013-01-15 18:23:00,
2013-01-15 11:33:00,15.0,-3.0,-100.00,East,93,10.0,17.0,44,0.00,,,0.00,411.000000,,2013-01-15 18:33:00,
2013-01-15 11:42:00,15.0,-3.0,-100.00,East,93,10.0,17.0,44,0.00,,,0.00,411.000000,,2013-01-15 18:42:00,
2013-01-15 12:12:00,18.0,-1.0,-100.00,ENE,71,5.0,13.0,43,0.00,,,0.00,518.000000,,2013-01-15 19:12:00,
2013-01-15 12:22:00,18.0,-1.0,-100.00,ENE,71,5.0,13.0,43,0.00,,,0.00,518.000000,,2013-01-15 19:22:00,
2013-01-15 12:33:00,18.0,-1.0,-100.00,ENE,71,5.0,13.0,43,0.00,,,0.00,518.000000,,2013-01-15 19:33:00,
2013-01-15 12:42:00,18.0,-1.0,-100.00,ENE,71,5.0,13.0,43,0.00,,,0.00,518.000000,,2013-01-15 19:42:00,
2013-01-15 13:12:00,18.0,-1.0,-100.00,East,85,7.0,13.0,42,0.00,,,0.00,567.000000,,2013-01-15 20:12:00,
2013-01-15 13:23:00,18.0,-1.0,-100.00,East,85,7.0,13.0,42,0.00,,,0.00,567.000000,,2013-01-15 20:23:00,
2013-01-15 13:33:00,18.0,-1.0,-100.00,East,85,7.0,13.0,42,0.00,,,0.00,567.000000,,2013-01-15 20:33:00,
2013-01-15 13:43:00,18.0,-1.0,-100.00,East,85,7.0,13.0,42,0.00,,,0.00,567.000000,,2013-01-15 20:43:00,
2013-01-15 14:12:00,20.0,0.0,-100.00,East,91,5.0,14.0,41,0.00,,,0.00,554.000000,,2013-01-15 21:12:00,
2013-01-15 14:22:00,20.0,0.0,-100.00,East,91,5.0,14.0,41,0.00,,,0.00,554.000000,,2013-01-15 21:22:00,
2013-01-15 14:33:00,20.0,0.0,-100.00,East,91,5.0,14.0,41,0.00,,,0.00,554.000000,,2013-01-15 21:33:00,
2013-01-15 14:42:00,20.0,0.0,-100.00,East,91,5.0,14.0,41,0.00,,,0.00,554.000000,,2013-01-15 21:42:00,
2013-01-15 15:12:00,19.0,0.0,-100.00,NE,49,8.0,12.0,43,0.00,,,0.00,451.000000,,2013-01-15 22:12:00,
2013-01-15 15:22:00,19.0,0.0,-100.00,NE,49,8.0,12.0,43,0.00,,,0.00,451.000000,,2013-01-15 22:22:00,
2013-01-15 15:32:00,19.0,0.0,-100.00,NE,49,8.0,12.0,43,0.00,,,0.00,451.000000,,2013-01-15 22:32:00,
2013-01-15 15:42:00,19.0,0.0,-100.00,NE,49,8.0,12.0,43,0.00,,,0.00,451.000000,,2013-01-15 22:42:00,
2013-01-15 16:12:00,18.0,0.0,-100.00,ENE,60,7.0,13.0,45,0.00,,,0.00,299.000000,,2013-01-15 23:12:00,
2013-01-15 16:22:00,18.0,0.0,-100.00,ENE,60,7.0,13.0,45,0.00,,,0.00,299.000000,,2013-01-15 23:22:00,
2013-01-15 16:32:00,18.0,0.0,-100.00,ENE,60,7.0,13.0,45,0.00,,,0.00,299.000000,,2013-01-15 23:32:00,
2013-01-15 16:42:00,18.0,0.0,-100.00,ENE,60,7.0,13.0,45,0.00,,,0.00,299.000000,,2013-01-15 23:42:00,
2013-01-15 17:12:00,13.0,-2.0,-100.00,NNE,24,4.0,11.0,51,0.00,,,0.00,139.000000,,2013-01-16 00:12:00,
2013-01-15 17:22:00,13.0,-2.0,-100.00,NNE,24,4.0,11.0,51,0.00,,,0.00,139.000000,,2013-01-16 00:22:00,
2013-01-15 17:32:00,13.0,-2.0,-100.00,NNE,24,4.0,11.0,51,0.00,,,0.00,139.000000,,2013-01-16 00:32:00,
2013-01-15 17:42:00,13.0,-2.0,-100.00,NNE,24,4.0,11.0,51,0.00,,,0.00,139.000000,,2013-01-16 00:42:00,
2013-01-15 18:12:00,9.0,-4.0,-100.00,East,88,4.0,6.0,55,0.00,,,0.00,9.000000,,2013-01-16 01:12:00,
2013-01-15 18:22:00,9.0,-4.0,-100.00,East,88,4.0,6.0,55,0.00,,,0.00,9.000000,,2013-01-16 01:22:00,
2013-01-15 18:33:00,9.0,-4.0,-100.00,East,88,4.0,6.0,55,0.00,,,0.00,9.000000,,2013-01-16 01:33:00,
2013-01-15 18:42:00,9.0,-4.0,-100.00,East,88,4.0,6.0,55,0.00,,,0.00,9.000000,,2013-01-16 01:42:00,
2013-01-15 19:12:00,6.0,-5.0,-100.00,ESE,115,2.0,6.0,61,0.00,,,0.00,0.000000,,2013-01-16 02:12:00,
2013-01-15 19:22:00,6.0,-5.0,-100.00,ESE,115,2.0,6.0,61,0.00,,,0.00,0.000000,,2013-01-16 02:22:00,
2013-01-15 19:32:00,6.0,-5.0,-100.00,ESE,115,2.0,6.0,61,0.00,,,0.00,0.000000,,2013-01-16 02:32:00,
2013-01-15 19:42:00,6.0,-5.0,-100.00,ESE,115,2.0,6.0,61,0.00,,,0.00,0.000000,,2013-01-16 02:42:00,
2013-01-15 20:12:00,7.0,-3.0,-100.00,ESE,122,4.0,7.0,63,0.00,,,0.00,0.000000,,2013-01-16 03:12:00,
2013-01-15 20:22:00,7.0,-3.0,-100.00,ESE,122,4.0,7.0,63,0.00,,,0.00,0.000000,,2013-01-16 03:22:00,
2013-01-15 20:32:00,7.0,-3.0,-100.00,ESE,122,4.0,7.0,63,0.00,,,0.00,0.000000,,2013-01-16 03:32:00,
2013-01-15 20:42:00,7.0,-3.0,-100.00,ESE,122,4.0,7.0,63,0.00,,,0.00,0.000000,,2013-01-16 03:42:00,
2013-01-15 21:12:00,7.0,-4.0,-100.00,South,179,1.0,5.0,61,0.00,,,0.00,0.000000,,2013-01-16 04:12:00,
2013-01-15 21:22:00,7.0,-4.0,-100.00,South,179,1.0,5.0,61,0.00,,,0.00,0.000000,,2013-01-16 04:22:00,
2013-01-15 21:32:00,7.0,-4.0,-100.00,South,179,1.0,5.0,61,0.00,,,0.00,0.000000,,2013-01-16 04:32:00,
2013-01-15 21:42:00,7.0,-4.0,-100.00,South,179,1.0,5.0,61,0.00,,,0.00,0.000000,,2013-01-16 04:42:00,
2013-01-15 22:12:00,7.0,-5.0,-100.00,West,259,0.0,4.0,57,0.00,,,0.00,0.000000,,2013-01-16 05:12:00,
2013-01-15 22:22:00,7.0,-5.0,-100.00,West,259,0.0,4.0,57,0.00,,,0.00,0.000000,,2013-01-16 05:22:00,
2013-01-15 22:32:00,7.0,-5.0,-100.00,West,259,0.0,4.0,57,0.00,,,0.00,0.000000,,2013-01-16 05:32:00,
2013-01-15 22:42:00,7.0,-5.0,-100.00,West,259,0.0,4.0,57,0.00,,,0.00,0.000000,,2013-01-16 05:42:00,
2013-01-15 23:12:00,4.0,-6.0,-100.00,SE,135,7.0,9.0,62,0.00,,,0.00,0.000000,,2013-01-16 06:12:00,
2013-01-15 23:22:00,4.0,-6.0,-100.00,SE,135,7.0,9.0,62,0.00,,,0.00,0.000000,,2013-01-16 06:22:00,
2013-01-15 23:32:00,4.0,-6.0,-100.00,SE,135,7.0,9.0,62,0.00,,,0.00,0.000000,,2013-01-16 06:32:00,
2013-01-15 23:42:00,4.0,-6.0,-100.00,SE,135,7.0,9.0,62,0.00,,,0.00,0.000000,,2013-01-16 06:42:00,